Location: Essen
(51.4609°N, 7.0127°E)
Time: 21:36:20
(UTC+01:00)

ISS - Pass Details

Date: 11 February 2018
Orbit: 402 x 407 km, 51.6° (Epoch: 24 February)

Event Time Altitude Azimuth Distance (km) Brightness Sun altitude
Rises 19:23:09 0° 279° (W) 2,321 1.7 -16.5°
Reaches altitude 10° 19:26:01 10° 252° (WSW) 1,458 0.1 -17.0°
Maximum altitude 19:27:42 14° 220° (SW) 1,261 -0.8 -17.2°
Drops below altitude 10° 19:29:24 10° 189° (S) 1,454 -0.9 -17.5°
Enters shadow 19:31:02 - 170° (S) 1,898 -0.5 -17.8°
